GLD1974 TRPG-TAPA

Flight info

Callsign GLD1974
Flight time N/A
Altitude 3000
Route EMALI
Aircraft C172/L-SFG/C

Departure

Time N/A
Airport John A. Osborne Airport (TRPG)

Arrival

Time 2026-05-05 19:33
Airport V. C. Bird International Airport (TAPA)
Time Latitude Longitude Altitude Speed Heading
2026-05-05 19:12 16.79216 -62.19369 551 ft 0 kts 132°
2026-05-05 19:14 16.79212 -62.19351 551 ft 7 kts 86°
2026-05-05 19:14 16.79187 -62.19316 551 ft 10 kts 184°
2026-05-05 19:14 16.79131 -62.19345 551 ft 10 kts 271°
2026-05-05 19:15 16.79133 -62.19425 550 ft 13 kts 270°
2026-05-05 19:15 16.79133 -62.19529 549 ft 15 kts 269°
2026-05-05 19:15 16.79127 -62.19613 549 ft 4 kts 340°
2026-05-05 19:15 16.79133 -62.19593 549 ft 1 kts 86°
2026-05-05 19:16 16.79132 -62.19577 549 ft 14 kts 91°
2026-05-05 19:16 16.79144 -62.19226 581 ft 50 kts 93°
2026-05-05 19:16 16.79169 -62.18845 666 ft 55 kts 99°
2026-05-05 19:17 16.79304 -62.18411 683 ft 81 kts 58°
2026-05-05 19:17 16.79783 -62.17932 711 ft 106 kts 50°
2026-05-05 19:17 16.80157 -62.17577 726 ft 113 kts 53°
2026-05-05 19:17 16.80954 -62.16781 757 ft 124 kts 52°
2026-05-05 19:18 16.81376 -62.16355 769 ft 130 kts 51°
2026-05-05 19:18 16.82034 -62.15693 774 ft 132 kts 52°
2026-05-05 19:18 16.82693 -62.15038 781 ft 130 kts 50°
2026-05-05 19:18 16.83334 -62.14378 783 ft 130 kts 51°
2026-05-05 19:19 16.83977 -62.13713 782 ft 130 kts 53°
2026-05-05 19:19 16.84637 -62.13068 788 ft 131 kts 51°
2026-05-05 19:19 16.85308 -62.12409 795 ft 133 kts 52°
2026-05-05 19:19 16.85988 -62.11769 787 ft 129 kts 51°
2026-05-05 19:20 16.86645 -62.11145 792 ft 128 kts 51°
2026-05-05 19:20 16.87293 -62.10500 783 ft 128 kts 51°
2026-05-05 19:20 16.87923 -62.09863 768 ft 123 kts 50°
2026-05-05 19:20 16.88489 -62.09242 765 ft 115 kts 51°
2026-05-05 19:21 16.89039 -62.08616 767 ft 121 kts 52°
2026-05-05 19:21 16.89639 -62.07981 764 ft 124 kts 51°
2026-05-05 19:21 16.90239 -62.07341 766 ft 122 kts 50°
2026-05-05 19:21 16.90815 -62.06690 770 ft 122 kts 51°
2026-05-05 19:22 16.91392 -62.06071 761 ft 116 kts 51°
2026-05-05 19:22 16.91959 -62.05486 758 ft 114 kts 51°
2026-05-05 19:22 16.92521 -62.04886 763 ft 117 kts 51°
2026-05-05 19:22 16.93101 -62.04278 763 ft 118 kts 51°
2026-05-05 19:23 16.93682 -62.03675 764 ft 120 kts 51°
2026-05-05 19:23 16.94273 -62.03058 766 ft 119 kts 51°
2026-05-05 19:23 16.94844 -62.02442 769 ft 118 kts 51°
2026-05-05 19:23 16.95419 -62.01816 768 ft 121 kts 51°
2026-05-05 19:24 16.96031 -62.01191 768 ft 124 kts 49°
2026-05-05 19:24 16.96608 -62.00539 769 ft 121 kts 50°
2026-05-05 19:24 16.97163 -61.99875 766 ft 121 kts 52°
2026-05-05 19:24 16.97726 -61.99252 763 ft 117 kts 51°
2026-05-05 19:25 16.98292 -61.98667 761 ft 112 kts 49°
2026-05-05 19:25 16.98834 -61.98063 759 ft 116 kts 50°
2026-05-05 19:25 16.99381 -61.97432 762 ft 119 kts 51°
2026-05-05 19:25 16.99957 -61.96803 760 ft 118 kts 51°
2026-05-05 19:26 17.00540 -61.96205 760 ft 117 kts 51°
2026-05-05 19:26 17.01125 -61.95626 763 ft 119 kts 50°
2026-05-05 19:26 17.01732 -61.95004 770 ft 126 kts 51°
2026-05-05 19:26 17.02350 -61.94339 765 ft 128 kts 51°
2026-05-05 19:27 17.02968 -61.93685 767 ft 126 kts 52°
2026-05-05 19:27 17.03618 -61.93046 771 ft 130 kts 50°
2026-05-05 19:27 17.04259 -61.92398 772 ft 126 kts 51°
2026-05-05 19:27 17.04883 -61.91765 767 ft 125 kts 50°
2026-05-05 19:28 17.05518 -61.91131 762 ft 126 kts 49°
2026-05-05 19:28 17.06144 -61.90490 762 ft 126 kts 51°
2026-05-05 19:28 17.06790 -61.89859 767 ft 128 kts 49°
2026-05-05 19:28 17.07411 -61.89197 766 ft 127 kts 50°
2026-05-05 19:29 17.08033 -61.88529 771 ft 130 kts 52°
2026-05-05 19:29 17.08696 -61.87865 767 ft 131 kts 50°
2026-05-05 19:29 17.09191 -61.87191 769 ft 105 kts 64°
2026-05-05 19:29 17.09530 -61.86490 769 ft 110 kts 69°
2026-05-05 19:30 17.09857 -61.85746 768 ft 115 kts 67°
2026-05-05 19:30 17.10297 -61.85027 773 ft 119 kts 60°
2026-05-05 19:30 17.10722 -61.84392 750 ft 89 kts 59°
2026-05-05 19:30 17.11000 -61.83899 593 ft 69 kts 66°
2026-05-05 19:31 17.11220 -61.83490 472 ft 60 kts 61°
2026-05-05 19:31 17.11444 -61.83150 475 ft 56 kts 63°
2026-05-05 19:31 17.11636 -61.82782 516 ft 60 kts 68°
2026-05-05 19:31 17.11829 -61.82419 517 ft 54 kts 62°
2026-05-05 19:32 17.12007 -61.82070 482 ft 56 kts 59°
2026-05-05 19:32 17.12209 -61.81735 422 ft 54 kts 58°
2026-05-05 19:32 17.12406 -61.81400 379 ft 54 kts 58°
2026-05-05 19:32 17.12629 -61.81043 271 ft 63 kts 64°
2026-05-05 19:33 17.12850 -61.80663 168 ft 59 kts 64°
2026-05-05 19:33 17.13068 -61.80288 87 ft 59 kts 63°
2026-05-05 19:33 17.13268 -61.79953 54 ft 48 kts 66°
2026-05-05 19:33 17.13360 -61.79836 55 ft 7 kts
2026-05-05 19:34 17.13409 -61.79830 56 ft 9 kts 10°
2026-05-05 19:34 17.13456 -61.79837 56 ft 7 kts 317°
2026-05-05 19:34 17.13455 -61.79865 56 ft 0 kts 195°